Voltar ao catálogo

STARLINK-34146

AtivoComunicaçõesVLEO
NORAD 64098·PAYLOAD·🇺🇸 United States

Lançado May 23, 2025 de Vandenberg Space Force Base

Loading…

Próximas Passagens (próximas 24 horas)

TLE

AtualizadoSource: CelesTrak SupGP

Época: Sep 15, 2026, 02:44 UTC

1 64098C 25110C   26258.11437500 -.00050937  00000+0 -15048-2 0  2583
2 64098  53.1577 222.7284 0001312  85.5040 259.7990 15.34418677    11

Acompanhe STARLINK-34146 em tempo real com AllMySat

Download on the App Store